Regional Weather Roundup
Issued by NWS

Home | Current Version | Previous Version | Graphics & Text | Print | Product List | Glossary Off
Versions: 1 2 3 4 5 6 7 8 9 10 11 12 13 14 15 16 17 18 19 20 21 22 23 24 25 26 27 28 29 30 31 32 33 34 35 36 37 38 39 40 41 42 43 44 45 46 47 48 49 50

000
ASUS43 KTOP 162259
RWRKS

WEATHER ROUNDUP FOR KANSAS
NATIONAL WEATHER SERVICE GOODLAND KS
500 PM CST TUE JAN 16 2018

NOTE:  "FAIR" INDICATES FEW OR NO CLOUDS BELOW 12,000 FEET WITH NO
SIGNIFICANT WEATHER AND/OR OBSTRUCTIONS TO VISIBILITY.

KSZ001>006-013>018-027>032-041>047-170000-
NORTHWEST KANSAS

CITY           SKY/WX    TMP DP  RH WIND       PRES   REMARKS
GOODLAND       CLEAR     24  -6  26 S7        30.46S
HAYS           CLEAR     19   3  49 CALM      30.65F
HILL CITY      CLEAR     18   1  47 CALM      30.62F
RUSSELL        CLEAR     17   3  54 NW6       30.65S
$$

KSZ061>065-074>080-084>089-170000-
SOUTHWEST KANSAS

CITY           SKY/WX    TMP DP  RH WIND       PRES   REMARKS
DODGE CITY     CLEAR     19  -3  38 N6        30.59F
GARDEN CITY    CLEAR     21 -14  20 CALM      30.55F
GREAT BEND     CLEAR     17   4  56 N8        30.67S
LIBERAL        CLEAR     23  -6  28 NW5       30.57F
$$

KSZ066>073-081>083-090>101-170000-
SOUTHEAST KANSAS

CITY           SKY/WX    TMP DP  RH WIND       PRES   REMARKS
CHANUTE        CLEAR     12   3  67 NW7       30.73F
COFFEYVILLE    PTCLDY    12   4  70 NW8       30.77S
HUTCHINSON     CLEAR     15   6  67 N9        30.68F
NEWTON         CLEAR     13   5  70 NW8       30.69F
PARSONS        MOCLDY    11   5  77 MISG      30.75F
WICHITA INTL   PTCLDY    15   6  67 N8        30.70F
WICHITA JABRA  PTCLDY    12   5  73 NW7       30.70F
WICHITA MCCONL CLEAR     13   4  66 N9        30.70F
WINFIELD       CLEAR     14   5  67 N8        30.73F
$$

KSZ007>012-019>026-033>040-048>060-102>105-170000-
NORTHEAST KANSAS

CITY           SKY/WX    TMP DP  RH WIND       PRES   REMARKS
CONCORDIA      CLEAR     13   4  67 NW6       30.69S
EMPORIA        PTCLDY    11   3  70 NW9       30.71S
LAWRENCE       CLEAR     11   2  67 W6        30.73F
MANHATTAN      CLEAR     13   3  64 NW5       30.74S
OLATHE IND     CLEAR      8   1  73 NW7       30.71F
OLATHE EXE     CLEAR      8   0  69 NW10      30.70F WCI  -6
SALINA         CLEAR     17   6  62 NW7       30.72S
TOPEKA BILLARD CLEAR     13   3  64 NW8       30.73S
TOPEKA FORBES  CLEAR     12   3  67 NW9       30.71S
$$




USA.gov is the U.S. government's official web portal to all federal, state and local government web resources and services.